Regional Weather Roundup
Issued by NWS

Home | Current Version | Previous Version | Graphics & Text | Print | Product List | Glossary On
Versions: 1 2 3 4 5 6 7 8 9 10 11 12 13 14 15 16 17 18 19 20 21 22 23 24 25 26 27 28 29 30 31 32 33 34 35 36 37 38 39 40 41 42 43 44 45 46 47 48 49 50
000
ASUS43 KFSD 191110
RWRSD

WEATHER ROUNDUP FOR SOUTH DAKOTA
NATIONAL WEATHER SERVICE SIOUX FALLS SD
600 AM CDT SAT APR 19 2014

NOTE: "FAIR" INDICATES FEW OR NO CLOUDS BELOW 12,000 FEET WITH NO
SIGNIFICANT WEATHER AND/OR OBSTRUCTIONS TO VISIBILITY.


SDZ001>005-009-010-012>017-191200-
NORTHWEST AND NORTH CENTRAL SOUTH DAKOTA

CITY           SKY/WX    TMP DP  RH WIND       PRES   REMARKS
BUFFALO          N/A     34  26  72 SW10      29.84R WCI  26
FAITH            N/A     41  32  70 W14       29.90R
MOBRIDGE       CLOUDY    43  35  73 CALM      29.81R
$$

SDZ012>016-024>037-041>051-057-063-072>074-191200-
SOUTHWEST AND SOUTH CENTRAL SOUTH DAKOTA

CITY           SKY/WX    TMP DP  RH WIND       PRES   REMARKS
RAPID CTY ARPT MOCLDY    45  18  34 NW14      29.93R
PIERRE         MOCLDY    45  35  68 W9        29.88R
CUSTER         CLOUDY    37  30  75 W5        29.97R
ELLSWORTH AFB  MOCLDY    44  20  38 NW15      29.93R
PHILIP         PTCLDY    43  32  65 W10       29.92R
PINE RIDGE     MOCLDY    42  34  73 E6        29.95S
SPEARFISH      FAIR      41  12  30 W10       29.97R
WINNER         FAIR      49  38  65 NW9       29.92R
$$

SDZ004>011-016>023-039-040-191200-
NORTHEAST SOUTH DAKOTA

CITY           SKY/WX    TMP DP  RH WIND       PRES   REMARKS
ABERDEEN       CLOUDY    50  39  66 N14       29.81R
WATERTOWN      MOCLDY    52  41  66 S21G28    29.80S
SISSETON         N/A     56  43  61 SW21G32   29.77R
$$

SDZ017-020-022-023-036>040-048>070-191200-
SOUTHEAST SOUTH DAKOTA

CITY           SKY/WX    TMP DP  RH WIND       PRES   REMARKS
SIOUX FALLS    MOCLDY    54  39  57 S22       29.94R
HURON          MOCLDY    54  41  61 NW24G35   29.82R
CHAMBERLAIN      N/A     52  40  63 NW14      29.89R
MITCHELL       PTCLDY    58  43  57 S15       29.85S
YANKTON        MOCLDY    55  39  54 S8        29.96R
$$

ABBREVIATIONS USED IN REMARKS
   TC - TEMPERATURE IN CELSIUS
  WCI - WIND CHILL INDEX
   HX - HEAT INDEX
  VSB - VISIBILITY




USA.gov is the U.S. government's official web portal to all federal, state and local government web resources and services.